AD8BW Weather Reports


Display with metric or nautical units.
time (UTC)temp
F
wind
direction
speed
MPH
gust
MPH
rain 1hr
in
rain 24hr
in
rain mn
in
humidity
%
barometer
mb
20260507153714 51 259 4.0 12.0 0.00 0.00 0.00 50 1011.1
20260507152717 52 246 4.0 9.0 0.00 0.00 0.00 48 1011.1
20260507151712 51 157 2.0 9.0 0.00 0.00 0.00 49 1011.0
20260507150716 50 338 4.0 11.0 0.00 0.00 0.00 50 1011.1
20260507145715 50 271 4.0 11.0 0.00 0.00 0.00 49 1011.2
20260507144716 51 161 2.0 7.0 0.00 0.00 0.00 49 1011.2
20260507143716 50 325 4.0 11.0 0.00 0.00 0.00 50 1011.2
20260507142712 51 218 4.0 9.0 0.00 0.00 0.00 49 1011.2
20260507141708 51 171 4.0 9.0 0.00 0.00 0.00 53 1011.1
20260507140709 50 207 2.0 7.0 0.00 0.00 0.00 52 1011.3
20260507135708 50 329 2.0 11.0 0.00 0.00 0.00 53 1011.4
20260507134710 49 177 2.0 7.0 0.00 0.00 0.00 54 1011.5
20260507133705 49 226 2.0 11.0 0.00 0.00 0.00 55 1011.5
20260507132706 48 215 2.0 9.0 0.00 0.00 0.00 55 1011.5
20260507131705 48 146 0.0 4.0 0.00 0.00 0.00 55 1011.5
20260507130702 48 188 2.0 7.0 0.00 0.00 0.00 57 1011.6
20260507125704 47 316 0.0 4.0 0.00 0.00 0.00 59 1011.5
20260507124703 47 223 0.0 2.0 0.00 0.00 0.00 62 1011.5
20260507123704 46 288 0.0 4.0 0.00 0.00 0.00 62 1011.5
20260507122702 45 213 0.0 4.0 0.00 0.00 0.00 66 1011.5
20260507121707 44 319 0.0 4.0 0.00 0.00 0.00 71 1011.5
20260507120658 42 314 0.0 0.0 0.00 0.00 0.00 76 1011.6
20260507115658 41 314 0.0 2.0 0.00 0.00 0.00 82 1011.7
20260507114657 38 314 0.0 0.0 0.00 0.00 0.00 86 1011.6
20260507113657 37 314 0.0 0.0 0.00 0.00 0.00 83 1011.5
20260507112658 36 314 0.0 0.0 0.00 0.00 0.00 82 1011.4
20260507111658 36 314 0.0 0.0 0.00 0.00 0.00 82 1011.4
20260507110700 37 314 0.0 0.0 0.00 0.00 0.00 82 1011.3
20260507105654 37 314 0.0 0.0 0.00 0.00 0.00 82 1011.2
20260507104658 37 314 0.0 0.0 0.00 0.00 0.00 81 1011.2
20260507103652 37 314 0.0 0.0 0.00 0.00 0.00 81 1011.1
20260507102655 37 314 0.0 0.0 0.00 0.00 0.00 80 1011.0
20260507101659 37 314 0.0 0.0 0.00 0.00 0.00 80 1011.0
20260507100656 38 314 0.0 0.0 0.00 0.00 0.00 80 1011.0
20260507095700 38 314 0.0 0.0 0.00 0.00 0.00 79 1011.1
20260507094655 38 314 0.0 0.0 0.00 0.00 0.00 79 1011.1
20260507093712 38 314 0.0 0.0 0.00 0.00 0.00 78 1011.2
20260507092657 38 314 0.0 0.0 0.00 0.00 0.00 78 1011.1
20260507091658 38 314 0.0 0.0 0.00 0.00 0.00 78 1011.2
20260507090652 38 314 0.0 0.0 0.00 0.00 0.00 78 1011.2
20260507085655 38 314 0.0 0.0 0.00 0.00 0.00 78 1011.4
20260507084654 38 314 0.0 0.0 0.00 0.00 0.00 76 1011.4
20260507083658 38 314 0.0 0.0 0.00 0.00 0.00 76 1011.4
20260507082654 39 314 0.0 0.0 0.00 0.00 0.00 76 1011.3
20260507081651 39 314 0.0 0.0 0.00 0.00 0.00 75 1011.3
20260507080657 39 314 0.0 0.0 0.00 0.00 0.00 74 1011.3
20260507075654 39 314 0.0 0.0 0.00 0.00 0.00 73 1011.2
20260507074652 40 314 0.0 0.0 0.00 0.00 0.00 71 1011.2
20260507073649 40 314 0.0 0.0 0.00 0.00 0.00 70 1011.2
20260507072653 41 314 0.0 0.0 0.00 0.00 0.00 69 1011.3
20260507071650 41 314 0.0 0.0 0.00 0.00 0.00 68 1011.3
20260507070648 41 314 0.0 0.0 0.00 0.00 0.00 68 1011.4
20260507065646 42 314 0.0 0.0 0.00 0.00 0.00 67 1011.4
20260507064649 42 314 0.0 0.0 0.00 0.00 0.00 67 1011.3
20260507063645 42 314 0.0 0.0 0.00 0.00 0.00 67 1011.4
20260507062652 42 314 0.0 0.0 0.00 0.00 0.00 66 1011.4
20260507061643 43 314 0.0 0.0 0.00 0.00 0.00 65 1011.5
20260507060642 44 314 0.0 0.0 0.00 0.00 0.00 64 1011.6
20260507055640 44 314 0.0 2.0 0.00 0.00 0.00 62 1011.5
20260507054644 45 314 0.0 0.0 0.00 0.00 0.00 61 1011.5
20260507053641 45 314 0.0 0.0 0.00 0.00 0.00 60 1011.5
20260507052642 46 314 0.0 2.0 0.00 0.00 0.00 60 1011.5
20260507051639 46 314 0.0 4.0 0.00 0.00 0.00 59 1011.6
20260507050642 45 199 0.0 0.0 0.00 0.00 0.00 61 1011.7
20260507045642 45 199 0.0 2.0 0.00 0.00 0.00 63 1011.6
20260507044636 46 199 0.0 0.0 0.00 0.00 0.00 63 1011.7
20260507043633 46 199 0.0 0.0 0.00 0.00 0.00 60 1011.6
20260507042635 46 199 0.0 0.0 0.00 0.00 0.00 60 1011.7
20260507041633 47 199 0.0 0.0 0.00 0.00 0.00 59 1011.7
20260507040636 47 199 0.0 0.0 0.00 0.00 0.00 59 1011.6
20260507035635 47 199 0.0 2.0 0.00 0.00 0.00 59 1011.7
20260507034632 47 199 0.0 2.0 0.00 0.00 0.00 59 1011.7
20260507033630 47 199 0.0 2.0 0.00 0.00 0.00 59 1011.8
20260507032632 47 199 0.0 2.0 0.00 0.00 0.00 60 1011.8
20260507031624 47 199 0.0 0.0 0.00 0.00 0.00 61 1011.8
20260507030623 47 199 0.0 2.0 0.00 0.00 0.00 59 1012.1
20260507025625 48 199 0.0 2.0 0.00 0.00 0.00 59 1012.1
20260507024626 48 199 0.0 0.0 0.00 0.00 0.00 59 1011.9
20260507023622 48 199 0.0 2.0 0.00 0.00 0.00 60 1011.9
20260507022623 48 199 0.0 0.0 0.00 0.00 0.00 60 1011.9
20260507021626 48 199 0.0 0.0 0.00 0.00 0.00 60 1011.8
20260507020625 48 199 0.0 2.0 0.00 0.00 0.00 59 1011.7
20260507015632 48 199 0.0 0.0 0.00 0.00 0.00 59 1011.6
20260507014624 48 199 0.0 0.0 0.00 0.00 0.00 58 1011.6
20260507013616 48 199 0.0 0.0 0.00 0.00 0.00 58 1011.5
20260507012620 49 199 0.0 4.0 0.00 0.00 0.00 56 1011.5
20260507011620 49 199 0.0 0.0 0.00 0.00 0.00 56 1011.5
20260507010619 49 199 0.0 2.0 0.00 0.00 0.00 55 1011.6
20260507005620 49 199 0.0 2.0 0.00 0.00 0.00 54 1011.5
20260507004618 49 199 0.0 2.0 0.00 0.00 0.00 54 1011.5
20260507003616 49 199 0.0 2.0 0.00 0.00 0.00 52 1011.5
20260507002618 49 199 0.0 4.0 0.00 0.00 0.00 52 1011.4
20260507001615 50 208 0.0 2.0 0.00 0.00 0.00 52 1011.4
20260507000618 50 208 0.0 2.0 0.00 0.00 0.00 52 1011.4
20260506235619 50 175 0.0 4.0 0.00 0.00 0.00 52 1011.3
20260506234615 50 216 0.0 4.0 0.00 0.00 0.00 52 1011.3
20260506233616 50 350 0.0 4.0 0.00 0.00 0.00 51 1011.2
20260506232616 50 194 2.0 5.0 0.00 0.00 0.00 50 1011.2
20260506231619 50 186 0.0 5.0 0.00 0.00 0.00 50 1011.2
20260506230616 51 283 2.0 7.0 0.00 0.00 0.00 49 1011.1
20260506225615 51 321 2.0 7.0 0.00 0.00 0.00 48 1011.2
20260506224612 51 20 2.0 11.0 0.00 0.00 0.00 48 1011.3
20260506223612 51 192 2.0 14.0 0.00 0.00 0.00 48 1011.2
20260506222614 51 159 2.0 9.0 0.00 0.00 0.00 48 1011.4
20260506221617 50 305 2.0 5.0 0.00 0.00 0.00 48 1011.4
20260506220616 50 325 0.0 5.0 0.00 0.00 0.00 50 1011.4
20260506215612 51 319 2.0 7.0 0.00 0.00 0.00 48 1011.3
20260506214615 50 340 2.0 5.0 0.00 0.00 0.00 49 1011.4
20260506213612 51 324 2.0 7.0 0.00 0.00 0.00 48 1011.3
20260506212614 51 315 2.0 7.0 0.00 0.00 0.00 47 1011.3
20260506211611 51 313 0.0 7.0 0.00 0.00 0.00 50 1011.2
20260506210612 50 342 2.0 9.0 0.00 0.00 0.00 49 1011.2
20260506205612 50 312 2.0 4.0 0.00 0.00 0.00 50 1011.3
20260506204612 50 147 2.0 7.0 0.00 0.00 0.00 49 1011.2
20260506203612 51 269 2.0 7.0 0.00 0.00 0.00 49 1011.2
20260506202609 50 327 2.0 7.0 0.00 0.00 0.00 49 1011.2
20260506201610 50 309 2.0 7.0 0.00 0.00 0.00 49 1011.4
20260506200609 50 136 2.0 9.0 0.00 0.00 0.00 51 1011.5
20260506195612 49 332 4.0 7.0 0.00 0.00 0.00 51 1011.4
20260506194610 49 301 2.0 11.0 0.00 0.00 0.00 52 1011.5
20260506193610 49 277 4.0 9.0 0.00 0.00 0.00 50 1011.5
20260506192607 50 320 4.0 9.0 0.00 0.00 0.00 49 1011.6
20260506191607 50 326 4.0 7.0 0.00 0.00 0.00 49 1011.5
20260506190612 50 259 2.0 7.0 0.00 0.00 0.00 50 1011.5
20260506185610 49 323 4.0 9.0 0.00 0.00 0.00 51 1011.5
20260506184608 50 290 4.0 11.0 0.00 0.00 0.00 51 1011.4
20260506183608 49 247 2.0 7.0 0.00 0.00 0.00 52 1011.5
20260506182608 49 350 4.0 7.0 0.00 0.00 0.00 52 1011.4
20260506181611 49 254 2.0 12.0 0.00 0.00 0.00 52 1011.6
20260506180606 50 273 2.0 7.0 0.00 0.00 0.00 54 1011.5
20260506175607 49 342 2.0 7.0 0.00 0.00 0.00 55 1011.6
20260506174605 49 321 2.0 7.0 0.00 0.00 0.00 55 1011.9
20260506173606 49 323 4.0 9.0 0.00 0.00 0.00 57 1011.8
20260506172618 47 328 2.0 5.0 0.00 0.00 0.00 59 1011.8
20260506171615 47 309 4.0 9.0 0.00 0.00 0.00 59 1011.8
20260506170601 48 155 4.0 11.0 0.00 0.00 0.00 57 1011.7
20260506165559 48 338 4.0 11.0 0.00 0.00 0.00 55 1011.6
20260506164600 48 288 4.0 11.0 0.00 0.00 0.00 57 1011.5
20260506163601 48 264 4.0 14.0 0.00 0.00 0.00 54 1011.7
20260506162602 48 286 2.0 7.0 0.00 0.00 0.00 57 1011.8
20260506161600 48 247 4.0 9.0 0.00 0.00 0.00 57 1011.7
20260506160611 47 271 4.0 9.0 0.00 0.00 0.00 57 1011.6
20260506155603 47 42 4.0 7.0 0.00 0.00 0.00 58 1011.6
20260506154558 48 331 4.0 7.0 0.00 0.00 0.00 58 1011.4